Regional Weather Roundup
Issued by NWS

Home | Current Version | Previous Version | Text Only | Print | Product List | Glossary Off
Versions: 1 2 3 4 5 6 7 8 9 10 11 12 13 14 15 16 17 18 19 20 21 22 23 24 25 26 27 28 29 30 31 32 33 34 35 36 37 38 39 40 41 42 43 44 45 46 47 48 49 50

000
ASUS43 KLMK 250710
RWRKY
KENTUCKY REGIONAL WEATHER ROUNDUP
NATIONAL WEATHER SERVICE LOUISVILLE KY
200 AM EST SAT FEB 25 2017

NOTE "FAIR" INDICATES FEW OR NO CLOUDS BELOW 12,000 FEET
WITH NO SIGNIFICANT WEATHER AND/OR OBSTRUCTIONS TO VISIBILITY.

KYZ001>023-026-027-061>063-070>075-250800-
WESTERN AND SOUTH CENTRAL KENTUCKY

CITY           SKY/WX    TMP DP  RH WIND       PRES   REMARKS
PADUCAH        CLEAR     45  25  45 W14G23    29.82R
HENDERSON      CLEAR     43  30  61 W18G24    29.76S
OWENSBORO      CLOUDY    45  33  63 NW12      29.77R
HOPKINSVILLE   PTCLDY    50  33  51 NW9       29.78R
BOWLING GREEN  CLOUDY    54  41  61 W12       29.73S
GLASGOW        CLOUDY    53  39  60 NW10G16   29.71S
$$

KYZ024-025-028>034-038-045-046-053-250800-
NORTH CENTRAL KENTUCKY

CITY           SKY/WX    TMP DP  RH WIND       PRES   REMARKS
LOUISVILLE/SDF CLOUDY    50  38  63 NW17G25   29.70R
LOUISVILLE/LOU CLOUDY    50  37  61 NW16G30   29.70R
FORT KNOX      MOCLDY    50  43  76 W10       29.69R
$$

KYZ035>037-039>044-047>052-055>060-089>105-250800-
NORTHEAST KENTUCKY

CITY           SKY/WX    TMP DP  RH WIND       PRES   REMARKS
LEXINGTON      LGT RAIN  52  37  56 NW8       29.67R
COVINGTON      MOCLDY    49  42  77 W6        29.65R
FRANKFORT      CLOUDY    52  38  58 W9        29.67R
$$

KYZ054-064>069-076>088-106>120-250800-
SOUTHEAST KENTUCKY

CITY           SKY/WX    TMP DP  RH WIND       PRES   REMARKS
JACKSON        TSTM      56  53  90 VRB5      29.63F FOG
LONDON         NOT AVBL
SOMERSET       HVY RAIN  55  55 100 S7        29.69S
MIDDLESBORO    CLOUDY    66  53  63 S7        29.66F
MONTICELLO     RAIN      58  56  93 E8        29.68F
$$





USA.gov is the U.S. government's official web portal to all federal, state and local government web resources and services.